Location: Unspecified
(42.9300°N, 71.1866°W)
Time: 15:02:12
(UTC-04:00)

Cosmos 1674 - Visible Passes

Search period start: 26 September 2016 00:00
Search period end: 06 October 2016 00:00
Orbit: 501 x 524 km, 82.5° (Epoch: 25 September)

Date Brightness Start Highest point End Pass type
(mag) Time Alt. Az. Time Alt. Az. Time Alt. Az.
26 Sep 2.7 20:12:47 10° N 20:16:38 59° E 20:16:58 56° ESE visible
27 Sep 2.9 19:56:51 10° N 20:00:37 46° ENE 20:01:38 37° ESE visible
27 Sep 5.8 21:34:13 10° WNW 21:35:48 12° W 21:36:37 12° W visible
28 Sep 3.2 19:40:57 10° N 19:44:35 37° ENE 19:46:25 23° SE visible
28 Sep 5.6 21:17:37 10° NW 21:19:53 15° W 21:21:24 12° WSW visible
29 Sep 3.6 19:25:05 10° NNE 19:28:32 30° ENE 19:31:20 14° SE visible
29 Sep 5.4 21:01:13 10° NW 21:03:57 19° W 21:06:20 11° SW visible
30 Sep 3.8 19:09:14 10° NNE 19:12:28 24° ENE 19:15:41 10° SE visible
30 Sep 5.1 20:44:56 10° NW 20:48:01 23° W 20:51:05 10° SW visible
01 Oct 4.1 18:53:29 10° NNE 18:56:24 20° ENE 18:59:19 10° ESE visible
01 Oct 4.8 20:28:42 10° NNW 20:32:04 28° W 20:35:24 10° SSW visible
02 Oct 4.4 20:12:32 10° NNW 20:16:06 35° W 20:19:38 10° SSW visible
03 Oct 3.9 19:56:24 10° NNW 20:00:08 44° W 20:03:49 10° SSW visible
04 Oct 3.4 19:40:19 10° NNW 19:44:08 56° W 19:47:55 10° S visible
05 Oct 3.0 19:24:15 10° NNW 19:28:08 72° W 19:31:59 10° S visible
